User: anonymous   Login
Location: Unspecified
(0.0000°N, 0.0000°E)
Time: 02:33:16
(UTC+00:00)
Language:

CBERS-4 - Orbit

View from above orbital plane
View from above orbital plane
View from above satellite
View from above satellite

Ground track
Ground track

The orbit data is extracted from the following two-line orbital elements,

1 40336U 14079A   20024.81679257 -.00000046  00000-0 -76401-6 0  9996
2 40336  98.5803  97.4680 0001471 114.7354 245.3979 14.35402506268930
Epoch (UTC): 24 January 2020 19:36:10
Eccentricity: 0.0001471
inclination: 98.5803°
perigee height: 772 km
apogee height: 775 km
right ascension of ascending node: 97.4680°
argument of perigee: 114.7354°
revolutions per day: 14.35402506
mean anomaly at epoch: 245.3979°
orbit number at epoch: 26893

The dashed part of the orbit path shows where the satellite is in the earth's shadow,  

DLR